Location: Boitzum
(52.1496°N, 9.6943°E)
Time: 02:28:39
(UTC+00:00)

Daily predictions for brighter satellites

Satellite Brightness Start Highest point End
(mag) Time Altitude Azimuth Time Altitude Azimuth Time Altitude Azimuth
ATLAS 2AS CENTAUR R/B 3.8 03:19:12 35° NNE 03:19:12 35° NNE 03:25:05 10° E
Cosmos 1844 Rocket 4.3 03:23:00 29° NE 03:23:00 29° NE 03:25:42 10° NNE
CZ-4C R/B 3.8 03:35:32 27° NNE 03:35:32 27° NNE 03:39:30 10° NE
Cosmos 2263 Rocket 4.2 03:44:56 17° N 03:44:56 17° N 03:46:34 10° NNE
Cosmos 2082 Rocket 4.1 03:41:39 20° N 03:43:14 22° NE 03:47:35 10° E
Lacrosse 5 rocket 4.1 03:47:44 15° ENE 03:47:44 15° ENE 03:48:25 10° ENE
Cosmos 1745 Rocket 4.1 03:49:18 70° ENE 03:49:18 70° ENE 03:55:03 10° NNE
GEOS 3 Rocket 4.2 03:44:11 10° ESE 03:48:25 54° E 03:48:25 54° E
Cosmos 1833 Rocket 2.9 03:59:25 67° ENE 03:59:25 67° ENE 04:04:44 10° SE
Cosmos 2297 Rocket 4.4 04:05:52 12° N 04:05:52 12° N 04:07:16 10° NNE
COSMO-SKYMED 1 3.9 04:01:06 10° SE 04:04:14 35° E 04:04:14 35° E
Cosmos 1992 Rocket 4.3 04:16:45 57° NNE 04:17:29 65° ENE 04:22:39 10° SE
Cosmos 2344 4.2 04:20:19 34° NNW 04:21:43 37° N 04:29:04 10° ENE
Cosmos 2181 Rocket 4.4 04:15:56 10° N 04:22:15 64° ENE 04:28:36 10° SSE
Cosmos 1844 4.3 04:25:53 41° N 04:25:53 41° N 04:29:57 10° NNE
Meteor 1-23 Rocket 4.0 04:25:56 58° NNW 04:27:06 86° WSW 04:32:40 10° S
USA 307 3.7 04:30:52 42° ENE 04:30:52 42° ENE 04:33:44 10° ENE
Cosmos 44 4.4 04:31:47 33° N 04:33:25 42° NE 04:38:31 10° ESE
Meteor 1-21 4.0 04:34:04 40° NNW 04:36:12 80° W 04:41:51 10° S
Cosmos 381 Rocket 4.5 04:34:47 11° SSW 04:41:05 88° ESE 04:47:33 10° NNE
ATLAS CENTAUR R/B 2.6 04:44:41 25° NE 04:44:41 25° NE 04:46:51 10° E
Cosmos 614 Rocket 3.7 04:47:35 57° WSW 04:48:29 72° WNW 04:53:33 10° NNE
Cosmos 2084 4.4 04:50:03 21° S 04:52:28 44° SE 04:56:27 10° NE
Okean 2 3.2 04:53:39 66° N 04:54:07 82° E 04:57:58 10° SSE
Cosmos 44 Rocket 4.5 04:54:47 29° NNW 04:54:47 29° NNW 04:58:55 10° NE
IRS-1D 3.5 04:50:51 10° NNE 04:56:11 84° WNW 05:01:30 10° SSW
Cosmos 2227 Rocket 4.2 05:00:01 12° NNW 05:00:18 12° NNW 05:02:40 10° N
Cosmos 2074 Rocket 4.4 04:55:24 10° S 05:01:37 65° E 05:07:52 10° NNE
Cosmos 1844 Rocket 3.6 05:04:39 29° NW 05:04:39 29° NW 05:09:23 10° NNE
Cosmos 1515 Rocket 3.7 05:05:57 50° WSW 05:05:57 50° WSW 05:10:03 10° S
ATLAS 2AS CENTAUR R/B 2.8 05:06:38 24° NW 05:10:55 71° NE 05:17:41 10° SE
ARIANE 6 FM1 Upper Stage 3.3 05:12:43 34° SW 05:12:43 34° SW 05:16:04 10° SSE
Nadezhda 3 Rocket 4.1 05:06:34 10° N 05:12:49 78° E 05:19:07 10° SSE
Meteor 1-11 Rocket 4.2 05:13:41 31° WSW 05:15:29 38° WNW 05:20:51 10° N
Meteor 2-13 Rocket 4.4 05:10:09 10° NNW 05:16:15 66° W 05:22:16 10° S
Cosmos 1743 Rocket 4.5 05:12:46 10° S 05:17:03 50° E 05:21:21 10° NNE
COSMOS 2406 4.3 05:13:32 12° NNW 05:18:33 41° NE 05:23:58 10° ESE
Lacrosse 5 rocket 1.6 05:21:15 39° NW 05:21:48 42° N 05:25:25 10° ENE
CZ-4C R/B 3.7 05:20:28 20° NW 05:23:41 31° NNE 05:30:05 10° ENE
BREEZE M DEB (TANK) 3.2 05:23:21 29° SW 05:24:25 37° SSW 05:30:34 10° SE
Cosmos 1709 Rocket 4.4 05:20:29 10° SW 05:26:01 36° WNW 05:31:38 10° N
Cosmos 2263 Rocket 4.1 05:26:35 12° NNW 05:27:36 13° NNW 05:30:07 10° NNE
GEOS 3 Rocket 4.3 05:22:51 10° S 05:27:37 35° WSW 05:29:28 27° W
Cosmos 2082 Rocket 2.4 05:23:29 15° NNW 05:28:17 74° ENE 05:33:58 10° SE
Okean 3 Rocket 3.7 05:26:13 10° SSW 05:30:28 50° WNW 05:34:48 10° N
Cosmos 2278 Rocket 2.8 05:28:59 10° SSW 05:34:30 59° ESE 05:40:04 10° NE
SMAP 3.9 05:30:19 10° NNE 05:34:54 53° E 05:39:27 10° S
Cosmos 2154 Rocket 4.0 05:29:44 10° S 05:36:05 87° WNW 05:42:24 10° N
NOAA 12 4.4 05:31:35 10° N 05:36:30 43° WNW 05:41:24 10° SW
Helios 1A Rocket 3.0 05:35:58 10° SSW 05:39:05 36° W 05:39:35 33° WNW
COSMO-SKYMED 1 3.4 05:36:48 10° SSW 05:40:17 27° W 05:40:33 26° W
Okean 3 3.5 05:38:12 17° NNW 05:41:00 47° W 05:44:49 10° SSW
Cosmos 1805 Rocket 3.5 05:36:54 10° SSW 05:41:18 67° WNW 05:45:43 10° N
Cosmos 1295 Rocket 4.5 05:35:19 10° SSW 05:41:37 66° WNW 05:47:54 10° N
Cosmos 1833 Rocket 3.7 05:41:08 23° W 05:42:34 25° WSW 05:47:04 10° SSW
USA 32 4.1 05:38:09 10° S 05:43:24 83° E 05:48:40 10° N
Gblst 52 Del rocket 4.3 05:40:14 23° W 05:43:40 67° SSW 05:49:13 10° ESE
Lacrosse 4 Rocket 4.3 05:41:13 10° SSE 05:44:04 19° ESE 05:46:54 10° ENE
Cosmos 1500 Rocket 3.6 05:46:11 10° SSW 05:50:27 55° WNW 05:54:47 10° N
Cosmos 2297 Rocket 4.4 05:49:07 10° NNW 05:51:21 12° NNE 05:53:35 10° NE
Cosmos 1758 3.0 05:48:50 10° SSW 05:52:34 79° W 05:56:19 10° N
TIMED 4.3 05:48:50 10° SSW 05:53:04 75° WNW 05:57:22 10° NNE
Cosmos 1269 Rocket 4.3 05:49:06 10° SSW 05:54:22 73° ESE 05:59:39 10° NNE
Cosmos 1408 Rocket 3.8 05:52:47 10° SW 05:56:55 43° WNW 06:01:03 10° N
USA 307 2.6 05:55:37 22° WNW 05:58:09 79° NNE 06:02:02 10° ESE
Timation 2 Rocket 4.2 05:51:38 10° SSW 05:58:15 79° ESE 06:04:36 10° NE
NOSS 8 (F) 4.0 05:57:44 22° NW 05:59:28 87° SW 06:02:44 10° SE
SeaSat 1 2.5 05:55:39 10° NNE 06:00:36 84° ESE 06:05:30 10° SSW
Sich 1 3.8 05:59:07 10° SW 06:02:45 28° WNW 06:06:24 10° N
Cosmos 2084 Rocket 3.8 06:02:53 14° NW 06:06:24 59° NE 06:10:34 10° ESE
Cosmos 1943 Rocket 2.1 06:02:08 10° SW 06:07:39 79° WNW 06:13:12 10° NNE
IGS 5A 3.8 06:05:28 10° N 06:09:09 37° WNW 06:12:48 10° SW
Okean 1-7 2.8 06:06:50 10° NNW 06:10:58 76° W 06:15:06 10° S
SJ 16-02 4.0 06:09:14 10° SSE 06:12:35 23° E 06:15:56 10° NE
BREEZE-M DEB (TANK) 3.5 06:12:52 14° WSW 06:14:33 32° SSW 06:16:55 10° SE
Cosmos 44 3.8 06:10:05 13° NW 06:14:45 55° SW 06:20:00 10° SSE
Cosmos 921 Rocket 3.2 06:12:51 10° SW 06:17:00 45° WNW 06:21:07 10° NNE
AQUARIUS 4.3 06:14:08 10° NNE 06:18:35 79° ESE 06:22:59 10° S
ATLAS CENTAUR R/B 1.3 06:16:29 16° WNW 06:18:36 36° SW 06:21:24 10° SSE
ARIANE 5 R/B 2.7 06:13:41 10° NNE 06:18:53 79° ESE 06:23:57 10° SSW
Cosmos 2184 Rocket 4.3 06:13:33 10° SW 06:19:24 42° WNW 06:25:15 10° N
Cosmos 1470 Rocket 4.3 06:15:54 10° S 06:20:06 55° E 06:24:19 10° NNE
Cosmos 1484 Rocket 3.4 06:19:00 10° N 06:21:50 25° WNW 06:24:40 10° WSW
Cosmos 1763 Rocket 3.4 06:17:35 10° NNW 06:22:37 68° WSW 06:27:37 10° SSE
IRS-1C 4.3 06:18:12 10° NNE 06:23:35 81° ESE 06:28:54 10° SSW
Meteor 2-19 Rocket 4.4 06:17:52 10° NNW 06:23:54 65° W 06:29:51 10° S
Meteor 2-10 Rocket 4.0 06:19:13 10° SW 06:23:57 38° WNW 06:28:53 10° N
CORIOLIS 4.2 06:18:33 10° NNE 06:23:58 68° WNW 06:29:20 10° SSW
Meteor 2-5 Rocket 3.9 06:20:04 10° NNW 06:25:55 87° ENE 06:31:50 10° SSE
Cosmos 1140 Rocket 3.4 06:20:54 10° SSW 06:25:59 71° WNW 06:31:08 10° NNE
Cosmos 1862 Rocket 3.8 06:22:56 10° NNW 06:27:07 46° W 06:31:15 10° SSW
Cosmos 2084 3.9 06:27:13 10° WSW 06:31:10 40° NNW 06:35:07 10° NE
CBERS-1 4.3 06:27:47 10° N 06:32:36 43° WNW 06:37:23 10° SW
SL-8 Rocket 4.1 06:27:29 10° S 06:33:49 88° W 06:40:09 10° N
Resurs 01 Rocket 4.0 06:33:07 10° NE 06:36:52 27° E 06:40:37 10° SSE
GRACE-FO 1 4.4 06:33:42 10° S 06:37:08 79° W 06:40:36 10° N
GRACE-FO 2 4.4 06:34:09 10° S 06:37:34 78° W 06:41:03 10° N
Cosmos 2344 4.3 06:30:45 10° NW 06:37:58 50° NNE 06:46:59 10° ESE
MOS 1 Rocket 3.4 06:35:29 10° N 06:40:00 49° WNW 06:44:16 10° SW
Cosmos 2369 Rocket 4.4 06:36:14 10° SSE 06:41:09 31° ESE 06:46:07 10° NE
SL-23 DEB 3.9 06:38:04 10° WSW 06:41:09 61° SSE 06:44:55 10° E
Cosmos 1707 Rocket 4.2 06:39:32 10° NNW 06:43:26 34° W 06:47:19 10° SSW
USA 234 3.6 06:37:33 10° ENE 06:44:08 74° SSE 06:50:42 10° SW
Cosmos 2228 Rocket 3.5 06:40:30 10° NNW 06:44:39 42° W 06:48:46 10° SSW
Meteor 1-24 Rocket 4.0 06:39:38 10° NNW 06:45:35 64° W 06:51:31 10° S
YAOGAN 1 3.0 06:42:22 10° NNE 06:46:38 66° ESE 06:50:52 10° S
SL-08 R/B 3.4 06:41:54 10° S 06:46:46 67° WSW 06:51:41 10° NNW
Cosmos 864 Rocket 4.5 06:40:46 10° SSW 06:46:53 80° W 06:53:04 10° N
Cosmos 2227 Rocket 4.3 06:44:39 10° NNW 06:47:04 13° NNE 06:49:29 10° NE
Cosmos 540 Rocket 3.7 06:42:51 10° NNW 06:47:46 50° WSW 06:52:40 10° S
SPOT 1/Viking Rocket 3.6 06:44:53 10° NNE 06:50:02 86° WNW 06:55:10 10° SSW
Thor Agena Rocket 3.8 06:45:43 10° N 06:50:34 47° WNW 06:55:27 10° SW
